User: anonymous   Login
Location: Caltech
(34.1382°N, 118.1253°W)
Time: 15:29:02
(UTC-08:00)
Language:

SL-08 R/B - Orbit

View from above orbital plane
View from above orbital plane
View from above satellite
View from above satellite

Ground track
Ground track

The orbit data is extracted from the following two-line orbital elements,

1 27561U 02054C   17054.21857803  .00000075  00000-0  27714-4 0  9990
2 27561  98.2382 189.3971 0046597 166.2240 194.0241 14.55591745755706
Epoch (UTC): 23 February 2017 05:14:45
Eccentricity: 0.0046597
inclination: 98.2382°
perigee height: 674 km
apogee height: 740 km
right ascension of ascending node: 189.3971°
argument of perigee: 166.2240°
revolutions per day: 14.55591745
mean anomaly at epoch: 194.0241°
orbit number at epoch: 75570

The dashed part of the orbit path shows where the satellite is in the earth's shadow,  

DLR